GFSWCAN_250_rhum_276.txt.gz
RH
10 9 9 8 8 8 6 5 6 6 5 6 9 10 14 19 22 25 37 35 38 54 58 97 76 100 100 98 98 100 100 100 100 100 100 100 100 100 100 100 100 100 100 100 100 100 100 93 99 81 86 74 68 79
11 10 10 9 8 8 7 5 6 5 5 7 9 12 14 14 16 24 26 22 28 62 100 94 100 100 100 100 100 100 100 100 100 100 100 100 100 100 100 100 100 87 75 100 100 100 100 100 100 100 100 100 100 100
11 10 10 9 8 8 8 6 6 5 6 8 10 12 14 17 18 20 30 36 41 56 76 100 100 100 100 100 100 100 100 100 100 96 96 100 100 100 100 100 100 100 100 100 100 100 100 100 100 100 100 100 100 100
11 10 10 10 8 9 7 6 6 5 7 11 12 13 14 15 20 24 34 36 45 54 79 83 100 100 100 85 98 92 75 80 65 100 97 89 67 100 100 100 100 47 69 96 100 100 95 100 98 100 100 100 100 100
13 10 9 10 10 8 8 6 6 5 7 12 12 13 16 16 20 25 26 37 46 62 80 97 82 100 90 66 82 88 84 91 100 95 92 86 100 94 99 100 100 66 48 100 99 91 100 100 100 100 100 100 100 100
16 11 9 9 9 8 7 7 6 7 8 13 15 13 14 17 23 14 19 42 50 73 96 100 87 89 100 89 100 100 100 100 100 96 83 100 79 81 75 100 100 83 34 71 100 100 100 99 100 100 100 100 100 100
23 14 10 9 8 8 7 7 7 6 8 12 16 14 17 20 17 15 18 32 58 92 100 100 95 96 100 98 100 100 84 100 100 78 58 79 83 73 71 64 55 47 39 35 33 33 37 38 37 41 42 90 94 89
33 20 11 9 8 7 8 6 6 6 9 14 15 15 18 19 18 18 29 47 77 92 100 98 100 100 100 100 100 100 100 100 69 88 80 82 83 64 55 67 70 64 48 40 38 38 39 32 30 32 34 34 34 34
42 27 16 10 8 7 7 7 7 7 9 14 16 19 19 17 14 23 46 71 74 95 100 100 98 100 93 100 100 100 95 100 100 94 98 100 73 64 95 100 75 53 42 45 48 42 39 36 35 34 33 36 36 36
42 33 19 12 9 7 6 7 8 8 11 16 16 16 19 16 19 26 32 26 37 80 94 99 100 100 100 100 97 100 100 100 100 100 100 70 61 95 100 100 100 64 42 56 59 52 48 49 52 51 58 60 51 47
43 30 22 12 8 7 7 7 8 8 9 13 16 17 21 22 27 34 34 33 51 73 77 100 100 100 100 100 100 100 100 86 85 100 100 90 82 100 100 96 93 51 57 69 62 64 68 62 62 67 56 47 52 54
33 23 17 12 8 7 7 7 8 9 10 13 17 20 22 28 37 52 43 53 70 73 78 99 96 100 100 100 100 100 100 99 100 100 92 80 100 100 100 100 90 67 75 71 78 78 85 77 76 74 73 63 58 56
21 18 14 11 7 8 8 7 8 8 10 14 16 20 22 24 27 35 49 57 53 56 78 99 98 96 100 100 100 100 88 96 100 84 71 94 100 100 100 100 91 83 75 92 95 93 82 77 91 94 81 63 56 57
17 16 13 10 7 8 8 8 7 9 11 15 18 20 19 18 20 25 31 30 39 60 85 89 85 96 96 100 100 91 92 100 82 76 92 100 100 100 98 90 98 98 78 76 77 80 79 73 84 86 73 58 62 63
17 17 12 9 8 7 7 8 8 9 13 18 20 19 18 17 18 22 24 31 34 32 36 42 60 85 95 95 100 94 94 100 100 95 96 100 89 89 100 100 100 100 96 89 90 87 94 91 90 92 81 76 71 66
16 11 8 8 8 8 7 7 7 9 13 15 18 20 19 18 20 26 35 30 27 28 30 31 37 56 71 85 98 100 98 96 100 100 98 80 85 97 100 100 96 88 84 85 94 92 100 100 100 98 86 76 70 59
12 9 8 8 8 7 6 6 7 8 10 16 20 20 18 21 29 33 34 39 48 45 34 29 31 37 51 67 81 87 96 100 100 88 84 86 85 82 82 80 82 86 80 73 82 90 86 91 90 90 86 67 52 39
10 8 7 8 7 7 7 7 7 7 9 13 17 18 22 26 29 34 34 34 38 40 37 32 32 37 48 59 70 82 90 90 86 80 79 77 76 73 72 72 70 68 71 75 73 70 66 59 56 49 43 36 28 21
8 7 6 7 8 8 8 8 7 10 12 13 16 24 29 26 26 33 40 43 45 46 49 46 41 43 49 53 55 59 58 52 51 50 52 59 61 63 66 71 73 69 59 55 53 49 48 44 38 34 27 19 15 14
7 7 7 8 8 7 7 10 12 13 13 13 24 28 31 33 32 37 44 46 51 56 61 54 50 52 55 54 58 61 59 55 52 48 42 40 50 52 48 48 49 48 44 40 40 39 32 26 21 16 16 17 15 14
8 7 7 7 8 8 9 9 12 13 10 16 26 31 34 36 40 46 48 43 43 41 53 57 53 52 54 42 36 32 27 25 30 35 36 38 38 36 31 26 29 32 32 29 26 25 27 26 22 19 20 20 10 8
6 7 8 8 8 9 12 12 12 13 12 24 40 42 48 47 44 41 39 45 49 62 76 74 77 70 49 31 26 31 34 34 34 32 29 26 24 20 20 24 31 30 28 25 21 20 20 19 14 10 9 8 8 9
8 8 8 9 9 10 12 14 16 18 24 44 66 59 50 44 39 39 47 56 77 92 86 64 59 57 53 49 46 37 34 36 33 28 24 24 25 26 34 31 23 19 18 14 12 9 8 7 7 9 9 9 9 9
9 9 9 10 11 13 16 18 26 36 42 80 78 81 76 62 53 68 86 87 83 72 68 70 72 64 55 46 39 39 45 42 33 28 26 30 32 37 34 21 15 15 12 10 10 8 7 8 9 10 9 9 9 9
10 14 14 15 20 23 22 23 34 53 84 100 100 77 59 64 63 64 70 68 64 62 65 63 58 56 55 58 61 62 53 43 35 35 33 38 31 16 14 14 12 12 14 12 10 9 10 11 12 11 9 9 9 9
16 13 18 29 44 45 56 53 68 80 85 97 92 73 67 70 77 81 81 85 84 87 84 80 75 67 66 62 58 51 40 45 48 42 34 19 18 24 16 12 13 11 13 13 11 12 14 13 10 9 8 9 10 10
38 29 28 25 33 41 55 68 79 78 79 82 89 88 87 90 93 86 96 100 100 96 93 89 80 67 52 47 48 50 51 47 44 35 22 23 30 24 21 15 13 13 13 12 12 12 11 10 9 10 10 10 10 10
75 62 46 46 48 57 76 76 71 70 67 63 65 73 78 84 92 99 100 93 81 68 60 57 54 53 54 54 48 43 37 31 29 32 39 33 26 21 16 14 15 15 14 14 12 11 10 10 11 11 10 11 11 11
84 97 94 87 84 78 73 70 70 72 72 67 62 64 67 69 72 71 59 51 49 52 60 63 60 56 45 35 33 28 35 46 42 28 21 21 19 16 14 14 15 16 14 12 12 11 11 11 11 12 12 12 12 12
54 72 80 82 86 87 87 91 81 78 81 78 75 74 74 73 68 63 63 64 65 58 56 56 54 49 39 25 23 40 52 44 30 24 21 17 16 15 15 16 16 15 13 12 12 12 13 13 13 13 13 14 16 18
72 78 77 81 80 79 83 90 92 93 92 88 87 82 74 64 56 54 54 52 52 58 58 54 40 31 32 36 50 59 57 43 27 21 17 17 18 17 17 16 15 14 13 13 13 14 14 14 14 15 17 18 20 21
51 53 54 57 61 62 73 80 85 74 65 57 48 42 52 61 65 65 55 46 35 32 35 40 47 52 50 42 54 63 45 24 18 17 18 18 18 17 17 17 16 15 15 15 15 15 15 16 17 17 18 18 19 18
59 54 52 55 54 50 46 44 47 50 52 55 62 65 63 57 54 47 43 47 52 57 54 52 44 40 43 54 59 37 20 18 18 18 19 18 18 18 18 17 16 16 16 15 16 16 17 17 15 15 15 16 16 16

GFSWCAN_250_rhum_279.txt.gz
RH
7 7 6 6 6 7 7 8 8 7 6 6 6 5 5 6 9 12 16 27 100 99 88 99 92 100 100 100 100 100 100 100 100 94 100 100 100 94 59 35 25 28 28 25 25 38 72 62 83 63 58 55 56 48
8 10 12 10 10 10 9 8 9 8 6 6 6 5 6 7 11 15 39 100 100 100 100 100 100 100 100 100 100 100 100 100 100 100 100 100 100 97 46 42 38 34 48 40 37 54 57 54 96 97 85 96 98 100
18 18 14 11 10 10 9 9 10 8 7 6 5 6 6 8 15 21 78 72 100 91 77 100 100 100 100 100 100 100 100 100 91 99 100 100 100 96 100 100 100 76 77 79 90 100 100 98 98 100 98 91 100 100
23 17 12 11 10 10 10 10 10 9 7 6 6 6 6 9 12 33 46 38 81 100 100 100 100 100 100 100 100 100 100 100 81 90 100 100 100 100 97 100 100 100 100 100 100 100 100 100 100 100 100 100 100 100
20 15 12 11 11 11 11 10 10 10 7 6 7 7 6 8 14 16 32 54 70 90 100 100 100 100 100 100 100 100 100 100 100 100 100 100 100 100 100 100 100 100 100 100 100 100 100 100 97 66 90 88 94 98
22 18 13 11 11 11 11 11 10 8 6 7 8 8 7 9 12 16 48 61 99 77 85 100 100 100 100 100 100 100 100 100 100 100 92 100 100 100 100 100 100 100 100 100 92 100 100 100 100 100 94 61 52 47
26 21 14 11 10 11 11 11 11 9 6 8 8 9 9 11 14 18 29 43 91 89 90 82 90 100 100 100 100 100 100 100 100 100 96 100 100 100 100 97 97 82 70 56 67 99 85 84 76 99 100 100 88 58
37 25 18 13 11 10 10 10 11 11 7 7 9 9 12 13 18 18 27 40 100 100 100 100 88 100 100 100 100 100 100 100 100 99 100 100 99 100 100 100 100 100 100 100 61 70 56 54 78 74 76 98 99 70
49 35 23 15 11 10 10 11 11 8 8 9 10 12 16 18 19 23 29 40 65 60 97 99 100 100 100 100 96 96 100 100 100 100 100 100 99 100 100 100 81 73 70 57 50 57 53 84 88 52 51 50 42 38
58 47 31 20 14 10 9 10 10 8 8 9 11 13 19 23 24 26 32 43 58 82 100 75 91 100 100 100 100 100 100 100 100 100 100 100 100 100 100 97 83 91 100 90 49 48 59 57 53 52 50 42 43 37
59 49 38 28 18 13 9 9 9 9 8 10 11 17 19 21 22 27 25 28 32 31 61 34 58 100 100 100 100 100 100 100 100 100 100 100 100 100 100 89 72 84 78 61 52 69 74 79 64 52 61 71 88 69
58 51 40 32 26 16 11 9 10 10 10 12 13 16 21 24 22 25 20 19 19 19 18 22 56 100 100 100 100 100 100 100 100 100 100 100 100 100 86 75 87 89 96 63 58 67 78 55 50 57 66 70 77 88
54 48 43 35 26 19 15 10 10 11 12 13 16 21 28 28 26 21 18 17 16 13 15 26 46 95 100 100 100 100 100 100 100 100 98 100 100 100 100 98 86 62 50 69 82 66 68 72 91 97 96 100 100 100
45 40 38 32 23 20 14 10 9 10 13 14 20 21 22 21 20 20 21 19 17 17 21 34 54 73 92 97 100 100 100 100 100 100 100 100 100 100 100 83 70 67 80 81 77 69 95 100 93 96 92 81 81 88
32 29 27 22 18 17 12 9 8 8 10 13 13 14 15 19 19 19 19 18 19 24 32 40 53 80 100 100 100 100 100 96 98 100 100 100 100 89 100 100 77 70 72 87 89 90 86 98 95 100 100 100 99 98
22 20 20 18 16 14 9 8 7 6 8 10 10 8 12 18 17 18 20 19 21 25 25 38 52 88 91 100 100 93 100 100 100 100 100 95 73 79 94 91 92 100 100 100 91 83 86 92 86 83 94 100 100 91
18 19 20 18 15 11 7 7 6 6 6 6 7 8 11 12 13 15 18 20 23 22 26 33 46 47 74 92 100 99 100 100 100 100 100 87 83 80 82 83 93 94 100 100 100 100 98 86 87 89 87 87 90 88
18 20 18 15 12 9 7 8 7 7 7 9 10 12 13 15 18 20 21 22 22 28 27 25 32 48 66 91 96 100 100 100 98 79 84 89 90 83 87 94 99 100 100 100 83 84 98 98 95 100 100 99 92 87
19 14 10 9 9 9 8 8 9 8 8 9 12 14 15 17 20 23 24 24 29 35 36 40 39 41 53 76 96 98 87 79 72 72 79 85 92 94 96 100 100 97 94 90 90 90 92 94 100 99 90 73 52 37
12 11 10 9 9 8 8 8 8 9 8 11 14 16 18 24 26 25 26 26 29 31 35 40 46 52 63 68 63 59 67 81 90 91 96 100 100 100 100 100 97 89 85 92 89 90 99 95 74 60 50 39 25 19
12 11 8 9 9 8 7 8 8 8 10 14 15 18 28 33 32 35 36 20 31 39 46 53 46 34 28 29 31 34 38 46 54 70 76 84 87 87 82 82 79 75 71 66 61 67 72 61 45 37 28 23 21 17
9 9 9 9 9 9 8 8 9 9 11 15 12 23 28 28 30 31 23 28 34 52 56 59 61 59 57 50 44 44 42 40 43 49 53 56 56 55 55 52 52 61 68 65 56 47 42 33 27 25 24 18 14 15
9 8 8 7 8 8 8 8 9 8 10 18 25 31 30 37 31 30 29 35 43 50 61 69 66 61 61 55 48 56 59 53 55 55 50 48 46 47 46 47 45 44 42 35 31 30 26 21 18 17 16 15 12 10
8 8 8 8 8 8 8 8 9 10 15 26 26 27 44 39 34 35 38 44 61 72 81 90 85 72 66 67 66 61 61 65 59 44 33 32 36 38 36 32 28 26 30 29 23 19 16 15 13 11 8 8 9 10
9 8 9 9 8 8 8 9 11 11 12 20 37 48 50 46 49 58 70 84 90 88 78 80 86 87 74 66 76 76 57 42 46 55 44 36 37 39 40 42 46 42 28 19 17 13 9 8 8 9 10 11 11 10
11 10 10 11 12 13 11 11 15 20 26 55 79 79 76 78 85 89 86 90 95 88 71 64 64 68 71 79 89 78 68 68 64 54 43 40 43 49 51 52 35 20 15 12 8 11 13 13 12 12 12 11 10 11
13 16 16 15 16 19 23 24 31 49 48 68 89 92 84 77 78 84 71 68 67 70 75 77 85 99 100 99 94 95 87 68 52 49 48 50 52 52 47 30 14 14 12 15 19 16 13 13 13 13 12 11 11 11
16 18 23 24 28 32 33 37 40 56 77 95 92 100 100 94 85 78 73 74 81 89 93 98 97 93 84 82 74 62 49 45 45 52 55 55 50 32 18 14 18 18 18 19 18 15 13 12 12 12 13 13 13 12
22 17 18 17 19 27 36 38 39 44 58 80 100 100 100 100 100 100 98 97 96 95 89 83 79 74 69 62 55 54 54 57 67 67 64 57 38 23 22 32 25 20 19 16 15 12 12 13 13 13 13 13 12 13
48 50 42 31 41 46 46 52 61 69 85 100 100 100 100 100 100 100 85 72 72 70 69 67 62 61 62 59 54 62 69 70 65 66 54 39 29 29 36 24 20 19 17 16 14 14 14 14 14 13 13 14 13 13
70 72 70 60 52 51 50 55 58 65 68 71 81 84 86 87 75 65 61 63 65 67 68 64 56 56 62 67 71 71 58 38 27 25 44 45 30 26 20 19 17 17 16 15 14 14 15 15 15 15 14 13 13 13
65 72 66 72 72 75 76 71 69 73 74 76 79 80 77 76 75 74 72 70 69 67 63 59 62 66 63 52 39 29 24 26 46 58 47 33 20 18 17 18 19 19 16 14 15 15 15 15 15 14 14 14 14 15
70 69 72 76 73 74 75 77 78 79 83 86 86 84 81 81 81 75 67 61 60 60 56 54 50 40 33 33 31 32 38 55 63 56 34 20 19 19 20 21 20 16 15 15 16 16 14 14 15 15 16 15 14 14

GFSWCAN_250_rhum_282.txt.gz
RH
11 11 11 10 10 9 9 10 10 9 9 8 8 8 8 7 6 7 6 6 6 8 9 10 9 10 11 11 17 46 100 100 100 100 100 100 100 100 100 100 76 69 69 51 55 55 87 61 49 42 36 31 26 36
12 11 11 11 10 10 9 9 9 9 8 8 7 6 6 5 5 5 5 5 6 8 10 9 10 14 23 20 70 100 98 100 100 100 100 100 97 87 85 76 69 75 90 100 100 89 54 39 34 34 34 31 38 66
11 11 10 10 10 10 10 9 7 6 5 5 5 5 5 4 5 6 5 5 6 11 11 12 15 21 26 57 100 100 100 100 100 99 94 100 97 100 100 99 100 100 100 100 96 72 45 37 33 35 52 66 89 100
12 12 12 11 10 7 6 6 7 7 7 6 6 6 6 6 7 7 6 6 9 14 16 48 37 40 100 100 100 100 100 100 100 100 100 100 100 100 100 100 100 100 100 100 88 61 48 56 59 100 100 100 100 92
12 10 9 8 8 10 10 10 10 9 8 8 8 8 9 10 9 7 6 7 14 17 37 50 50 100 100 100 100 100 100 100 100 100 100 100 100 100 100 100 100 100 100 100 90 88 100 100 86 88 100 100 100 100
10 11 18 18 17 16 13 11 11 10 9 9 9 10 10 10 10 9 9 13 17 29 52 77 100 100 100 100 100 100 100 100 100 100 100 100 100 100 100 100 100 100 100 100 100 100 100 99 99 84 98 100 100 100
24 28 30 23 17 13 11 11 12 10 9 10 10 11 12 10 10 11 11 18 40 74 100 96 99 100 100 100 100 100 100 100 100 100 100 100 100 100 100 100 100 89 62 100 100 99 100 100 100 100 100 100 100 100
41 38 28 24 16 12 11 12 12 11 11 11 12 13 12 11 12 13 15 26 34 48 56 61 90 100 100 100 100 100 100 100 100 100 100 100 100 100 100 100 100 100 100 100 98 67 100 100 100 100 100 100 100 100
46 38 32 24 16 13 11 12 12 12 12 12 12 13 13 13 18 14 19 53 67 60 69 60 80 100 100 100 100 100 100 100 100 100 100 100 100 100 100 100 100 100 100 100 100 96 100 100 93 100 100 100 100 96
52 48 38 32 19 14 11 11 13 12 12 12 12 13 12 14 18 20 47 51 32 35 44 63 78 100 100 100 100 100 100 100 100 100 100 100 100 100 100 100 100 100 100 100 69 98 96 94 100 100 100 98 76 73
59 60 54 38 30 18 12 11 13 14 12 12 12 13 13 13 17 28 31 35 25 32 42 68 100 100 100 100 100 100 100 100 100 96 94 100 100 100 100 100 100 100 100 100 93 99 94 92 95 83 80 82 100 58
69 68 63 55 42 28 18 12 13 14 13 13 11 12 14 15 18 26 31 48 46 63 70 80 98 100 100 100 100 100 100 100 100 100 100 100 100 100 100 100 100 100 100 80 63 87 100 99 82 98 100 100 80 63
72 70 64 56 52 40 24 16 12 13 12 11 10 11 12 13 16 18 76 60 74 58 68 68 79 100 100 100 100 100 100 100 100 100 100 100 100 100 100 100 100 100 100 100 100 98 98 93 100 100 100 100 73 83
67 63 59 58 50 40 35 21 12 12 12 11 10 10 11 12 16 23 41 44 61 78 60 78 71 86 100 100 100 100 100 100 100 100 100 100 100 100 100 100 100 100 100 100 100 81 90 97 100 100 100 93 83 57
61 56 53 49 48 39 30 24 12 11 12 10 10 9 10 12 16 21 38 51 60 72 58 87 91 79 100 100 100 100 100 100 100 100 100 100 100 100 89 95 100 100 100 100 100 96 100 100 100 100 87 81 67 60
51 45 42 43 35 27 21 18 11 8 9 9 9 10 9 12 15 22 33 41 52 77 64 63 76 80 74 99 100 100 100 100 100 100 100 100 100 100 100 100 98 100 99 100 100 100 100 98 98 87 82 78 70 66
40 33 27 24 21 20 15 11 8 8 7 9 11 13 11 10 14 20 35 48 51 53 66 50 53 36 59 46 66 100 100 100 100 100 100 100 100 100 100 91 100 100 100 100 100 100 100 100 100 98 85 87 98 99
23 20 19 19 19 16 12 10 8 8 9 12 11 12 13 14 16 21 39 39 32 33 34 34 29 22 23 32 78 100 100 100 100 100 100 100 100 100 100 100 99 100 100 100 100 100 100 100 95 96 100 98 95 95
18 18 19 20 18 16 13 12 10 10 9 9 9 10 12 15 21 34 50 26 25 27 30 28 27 24 26 29 32 61 88 98 100 100 100 100 100 100 100 100 100 100 97 99 94 93 89 89 90 84 79 81 79 77
18 22 22 20 20 18 13 9 8 8 9 10 10 12 13 18 20 24 25 25 25 21 26 27 29 33 33 35 41 51 63 66 74 93 100 100 100 100 100 100 100 100 100 100 82 81 92 88 94 92 92 87 81 73
24 19 15 13 13 14 10 8 8 9 9 9 8 9 14 16 20 26 25 26 23 24 33 51 42 32 36 42 50 54 57 68 76 77 78 92 100 100 100 100 100 100 91 88 97 99 98 88 86 86 82 74 69 57
15 12 12 13 12 13 13 9 8 8 9 10 11 13 16 18 23 26 23 27 30 39 40 41 46 40 51 59 48 44 46 48 54 62 78 87 88 92 98 91 82 76 81 86 89 88 87 89 86 77 68 48 28 21
15 10 10 11 11 12 14 10 9 8 8 11 12 14 17 22 31 37 44 72 42 28 32 41 46 49 55 53 48 50 51 54 59 65 74 89 97 97 97 94 93 97 98 97 89 81 70 58 47 40 31 22 18 20
10 8 9 10 11 12 14 13 9 8 8 10 16 20 22 27 32 31 50 52 36 35 33 45 52 67 70 72 75 68 59 57 57 57 59 62 64 69 73 72 73 71 66 62 59 56 54 50 38 24 17 19 16 13
9 10 10 10 10 10 12 12 10 10 9 10 13 16 20 27 35 47 58 52 43 46 37 65 82 79 74 70 73 78 64 53 48 44 46 47 50 48 43 44 44 42 37 33 32 29 24 20 16 14 15 13 10 8
10 9 11 11 8 8 10 11 11 12 12 14 18 18 22 28 35 42 62 42 31 41 75 98 87 80 87 100 97 84 65 53 54 64 65 55 46 40 38 36 32 29 32 32 27 19 14 12 16 15 12 11 12 12
11 11 12 11 10 10 13 16 13 17 21 26 28 28 30 37 38 34 32 32 45 61 68 70 78 88 89 78 70 72 75 70 68 66 58 54 46 40 41 42 45 45 34 25 20 12 14 16 17 17 15 12 12 13
10 9 10 10 10 9 12 15 19 26 28 30 35 38 41 45 50 52 54 55 59 65 69 74 81 81 74 71 77 78 77 76 74 71 63 55 50 53 58 65 54 36 26 18 14 15 20 22 20 14 14 14 14 14
10 11 12 18 20 20 19 22 28 33 40 38 43 58 67 66 66 72 73 69 70 75 90 98 96 90 85 82 84 83 79 77 76 73 70 75 79 71 67 52 38 25 19 16 18 27 22 18 16 15 16 16 15 13
11 10 8 10 14 19 26 31 37 41 43 48 62 86 82 89 92 88 88 89 95 94 90 87 83 81 86 88 88 85 82 83 78 75 80 77 78 62 51 37 23 18 21 25 30 26 21 18 18 17 17 16 14 14
32 25 20 18 18 19 23 27 52 84 88 84 89 84 86 84 70 65 81 80 71 69 69 70 75 80 83 81 75 69 67 65 66 68 71 75 62 46 33 27 18 21 32 37 32 25 20 19 18 18 16 15 16 16
48 39 32 30 27 24 27 35 53 68 69 67 76 86 91 89 72 67 62 63 66 62 58 58 57 58 55 51 52 56 59 62 64 59 52 44 35 30 32 30 35 44 44 33 23 20 18 17 17 16 15 16 17 16
64 66 66 58 56 49 46 59 67 76 84 88 95 98 86 84 94 92 75 70 65 62 61 54 49 50 51 54 56 57 54 51 45 39 35 33 36 45 49 41 44 45 30 21 19 18 18 17 16 15 16 18 18 17

GFSWCAN_250_rhum_285.txt.gz
RH
12 12 12 12 12 12 12 12 12 12 12 12 11 10 10 9 9 8 9 8 7 7 10 8 9 9 8 9 8 10 10 10 10 11 14 33 13 18 21 22 30 38 61 76 56 100 100 100 100 92 90 65 39 54
11 10 11 11 11 12 12 11 11 10 10 9 9 8 8 8 8 7 8 7 7 7 9 7 8 8 8 8 8 8 9 9 11 14 11 11 30 21 24 50 57 52 61 99 100 100 100 100 100 100 100 97 93 68
11 12 12 11 11 11 11 10 10 9 9 9 8 8 8 8 7 7 8 7 6 7 8 8 9 8 8 7 8 8 9 13 13 14 18 29 31 41 85 99 100 100 100 100 100 100 99 100 100 98 85 100 100 66
12 12 11 10 10 10 10 10 9 9 9 9 9 8 8 8 7 7 8 7 7 8 9 10 8 8 9 9 8 10 14 15 16 18 38 49 97 91 100 100 100 100 100 100 94 100 97 100 100 96 100 100 96 55
12 12 11 10 11 11 11 11 11 10 10 9 9 8 8 8 7 7 8 8 8 9 10 8 9 10 11 11 12 19 88 100 97 81 72 88 100 100 100 100 100 100 100 91 99 100 100 100 100 100 100 73 58 43
12 12 12 12 12 12 12 12 11 10 9 9 9 8 8 7 7 6 7 7 7 7 9 9 10 12 15 28 57 91 99 100 100 100 100 100 100 100 100 100 100 100 100 100 100 100 100 100 100 100 99 68 52 86
12 12 12 12 13 13 13 13 12 11 8 6 5 5 4 4 4 5 7 8 9 10 10 10 13 18 38 97 96 100 100 100 100 100 100 100 100 100 100 99 100 100 100 95 87 100 100 100 100 100 99 83 98 100
13 14 14 14 14 13 12 11 10 9 8 8 8 8 7 7 7 12 11 10 11 15 14 14 25 46 98 100 100 100 100 100 100 100 100 100 100 100 100 100 100 100 73 95 100 100 100 100 100 100 72 99 100 100
14 14 13 12 12 18 21 19 17 13 11 10 9 10 10 11 13 11 12 13 18 16 19 44 36 72 78 100 100 100 100 100 100 100 100 100 100 96 88 100 100 95 100 100 100 100 100 100 100 99 99 100 100 87
13 16 23 30 32 28 25 20 13 11 10 10 10 12 12 12 12 13 14 16 19 18 28 63 71 90 95 96 100 100 100 100 100 100 100 100 68 90 82 100 100 100 100 100 100 100 100 90 55 58 74 100 100 98
34 40 46 40 33 26 19 14 12 11 11 12 15 15 14 14 13 15 14 17 18 22 44 71 58 90 88 100 100 100 100 100 100 100 92 92 100 100 100 100 100 100 100 100 95 100 100 100 100 100 100 100 100 100
56 48 43 45 42 29 19 14 12 12 12 13 13 12 14 15 13 13 13 15 19 24 46 58 91 100 100 100 100 100 100 100 100 100 86 100 100 100 100 92 100 100 100 100 100 100 86 100 100 100 100 100 100 96
64 58 60 56 46 37 27 17 13 12 13 14 15 14 13 14 12 14 14 21 24 34 57 63 100 100 100 100 100 100 100 100 96 99 100 100 100 100 100 100 100 100 100 100 100 97 100 100 100 100 100 100 100 100
68 65 66 66 61 49 38 25 16 12 14 15 16 17 15 14 13 14 14 17 28 40 63 66 100 100 100 100 100 100 100 100 85 100 100 100 100 100 100 98 91 100 100 100 100 94 98 100 100 100 100 100 100 100
71 69 68 65 59 54 44 31 19 12 14 17 17 17 15 14 14 14 14 18 28 43 49 76 100 100 100 100 100 100 100 100 100 100 100 100 100 100 100 100 100 100 100 100 100 100 100 100 100 100 100 100 83 80
66 61 59 60 57 51 42 30 23 11 12 15 16 16 12 12 11 15 19 28 33 42 36 64 82 100 100 100 100 100 100 100 100 100 98 90 100 100 100 100 100 100 100 100 100 100 100 100 100 100 100 100 100 100
66 63 60 54 52 44 36 32 27 16 13 16 15 12 12 13 13 17 31 50 51 62 78 78 82 100 98 100 100 100 100 100 100 100 100 99 66 96 100 100 100 100 86 98 100 100 100 100 100 100 100 100 100 100
66 57 46 44 44 43 34 24 29 25 15 14 14 12 13 15 16 20 35 46 56 74 77 94 82 83 92 92 100 100 100 100 100 100 100 100 100 100 86 76 69 59 78 100 100 100 100 100 100 100 100 100 100 92
54 43 34 30 28 23 23 27 24 20 12 12 12 12 13 14 20 23 30 30 48 46 45 75 96 91 95 100 100 100 100 100 100 100 100 100 100 100 100 100 100 100 100 100 100 100 100 100 97 94 92 76 72 60
33 24 24 22 21 23 24 22 18 14 11 9 10 12 12 10 13 22 31 38 43 49 60 68 97 100 100 98 96 95 92 99 100 100 100 100 100 100 100 100 100 100 100 100 100 100 100 94 92 99 100 89 66 64
20 20 21 22 25 25 22 19 14 10 8 9 10 9 10 13 16 23 32 34 31 41 62 56 72 97 96 84 77 76 83 89 86 84 87 100 97 99 100 100 100 100 100 100 100 100 100 95 73 72 84 90 100 100
21 26 25 24 25 24 22 17 13 10 8 8 9 11 11 14 18 24 25 34 34 44 67 76 66 68 72 83 90 92 89 87 87 94 91 86 92 100 100 100 100 100 100 100 100 96 100 100 100 100 100 100 84 66
28 25 19 16 18 19 20 17 14 10 9 8 10 12 14 19 25 24 25 34 28 37 60 85 88 84 74 76 81 67 67 82 73 65 79 92 100 100 100 100 100 100 100 98 93 92 97 98 100 100 99 86 69 67
20 17 15 13 15 17 17 14 12 13 10 9 12 16 17 18 19 26 55 50 42 40 54 60 70 76 92 93 80 58 40 44 59 79 90 85 81 92 91 93 89 82 78 72 72 69 69 70 70 67 61 55 49 44
18 17 16 15 14 15 18 19 13 12 12 11 13 17 20 21 25 45 46 57 64 64 43 65 63 52 58 54 54 58 71 78 100 99 72 56 48 43 39 38 41 43 48 54 60 62 60 54 49 42 36 30 25 23
15 12 14 15 13 14 12 14 14 12 11 10 10 12 16 19 21 23 48 59 57 64 65 50 58 64 70 83 88 92 88 88 80 71 54 46 47 51 52 54 60 65 66 60 58 56 54 50 42 37 32 27 24 23
12 13 13 13 13 14 13 13 11 12 16 15 16 17 21 25 31 50 67 71 58 70 51 48 50 53 59 71 77 92 93 84 66 57 55 53 49 55 64 73 74 70 61 56 51 46 39 33 26 21 17 19 19 16
10 13 12 12 12 13 10 13 11 11 15 18 19 21 24 29 34 58 69 66 61 62 54 46 48 53 66 74 86 88 71 62 62 60 64 65 63 64 68 70 68 54 46 43 39 32 27 23 19 17 21 18 15 15
12 12 13 11 13 12 13 14 13 13 15 19 21 25 27 33 38 35 51 55 35 27 34 46 60 82 94 91 86 82 83 84 83 77 73 70 77 74 67 61 56 52 48 42 35 30 22 18 20 21 23 22 23 18
12 13 14 15 15 13 13 13 15 18 22 26 30 34 39 42 47 49 56 62 66 58 61 77 96 95 95 94 91 86 83 80 74 80 88 83 78 69 64 62 55 51 46 37 28 20 21 20 20 27 28 24 16 15
10 10 10 10 11 11 13 16 16 21 29 30 37 49 49 45 54 58 68 61 65 67 71 80 90 93 89 92 96 93 88 79 76 72 70 66 61 64 66 69 62 48 38 30 23 20 22 25 35 36 22 15 16 16
20 19 16 14 15 13 14 20 27 30 37 43 41 48 58 68 79 86 73 72 81 92 98 95 89 87 86 84 79 77 71 67 60 58 62 63 70 70 60 50 42 36 33 28 23 22 30 42 37 21 16 18 18 18
24 27 30 27 21 22 21 26 32 39 39 44 48 59 65 72 77 83 70 76 81 78 72 70 72 74 71 64 59 58 57 58 60 64 67 63 54 49 48 42 38 38 32 24 23 35 43 33 24 19 20 20 19 19

GFSWCAN_250_rhum_288.txt.gz
RH
15 15 15 15 16 17 18 18 19 20 20 20 20 20 20 19 18 16 16 15 15 13 17 18 20 22 25 24 22 27 23 27 27 23 20 16 13 15 18 14 15 16 13 12 11 9 8 20 28 46 63 97 57 63
13 14 14 14 14 15 15 17 18 19 20 20 20 20 20 19 18 16 16 15 12 10 14 14 16 16 19 21 16 15 16 18 18 16 12 11 8 9 9 8 10 9 10 11 12 16 42 99 86 87 78 100 100 99
10 11 12 13 13 13 14 14 15 16 17 18 18 17 16 15 13 13 13 11 9 8 9 11 12 15 10 10 9 9 10 10 9 10 9 8 8 9 8 8 9 9 12 12 14 21 100 100 100 100 100 100 100 100
11 11 12 11 12 12 12 13 14 14 13 14 14 13 12 12 10 10 10 10 8 8 7 12 11 9 9 8 8 9 10 8 9 9 8 8 8 8 10 13 13 20 28 20 33 95 100 100 100 100 100 100 100 100
10 11 11 11 12 12 12 13 13 12 12 11 11 10 10 9 9 8 8 9 8 7 9 12 8 9 8 9 8 8 9 8 9 9 8 9 9 10 11 15 14 22 31 54 95 100 100 100 100 100 100 100 100 100
10 11 12 12 14 14 12 12 11 11 11 11 10 10 10 9 8 9 10 10 9 9 11 10 10 9 9 8 9 9 10 10 10 10 9 9 12 15 31 36 73 66 86 92 100 100 100 100 100 100 100 100 100 100
11 12 13 13 14 13 12 12 13 12 10 10 10 10 9 9 9 10 11 9 9 9 10 10 11 10 10 11 11 12 12 13 13 12 11 15 22 29 33 60 100 100 88 100 100 100 100 96 100 100 100 100 100 100
11 12 12 13 13 13 12 12 11 11 10 10 10 9 9 9 10 12 10 9 10 10 10 10 10 10 12 13 14 17 17 19 21 23 30 26 37 30 24 99 100 100 100 100 100 100 100 100 100 94 91 100 100 100
11 11 12 13 13 13 13 13 13 12 11 11 10 10 10 10 12 10 9 9 10 10 9 9 10 12 13 15 20 23 26 59 93 95 83 65 88 50 90 100 100 100 100 100 100 100 100 87 79 97 100 100 100 100
12 13 13 13 14 14 14 14 13 13 13 13 12 11 10 9 7 7 7 6 8 8 12 12 15 18 25 30 38 63 100 100 100 100 100 100 100 100 100 100 100 100 100 100 100 100 100 100 100 100 100 100 100 92
12 14 14 15 15 15 16 16 15 14 11 9 11 12 9 9 9 9 9 13 13 16 18 28 47 52 62 52 89 94 100 100 100 100 100 99 100 100 100 100 100 100 100 100 100 100 100 100 100 100 100 100 100 100
14 16 17 18 18 18 18 19 19 18 14 15 13 11 10 10 10 10 12 14 20 26 40 62 67 71 79 100 100 100 100 100 100 100 100 100 100 80 98 100 100 100 100 100 100 100 100 95 94 100 100 100 100 100
17 17 18 19 26 30 30 28 25 19 14 12 12 11 10 11 13 15 16 19 25 36 51 74 63 96 99 100 100 100 100 100 100 100 100 99 92 100 100 98 100 100 100 100 100 100 100 100 100 100 100 100 100 100
22 31 34 38 42 40 34 26 20 15 12 12 12 13 12 16 17 18 19 18 24 54 85 100 87 90 100 100 100 100 100 100 100 100 100 100 89 100 100 100 100 100 100 100 100 100 100 100 100 100 100 100 100 100
54 53 50 49 45 41 38 32 25 16 13 13 14 16 16 16 18 19 20 26 33 51 100 100 100 100 100 99 100 100 100 100 100 100 100 100 100 88 100 84 87 91 87 100 100 100 100 100 100 100 100 100 100 100
70 66 64 62 60 54 47 39 34 26 15 16 15 15 16 18 20 23 29 40 51 59 100 100 100 100 100 91 96 100 100 100 100 100 100 100 100 100 98 87 81 100 88 89 98 95 99 100 100 100 100 100 100 100
70 74 75 76 72 64 55 49 53 50 30 16 16 17 18 20 22 31 70 67 80 100 94 100 100 100 100 98 95 100 100 100 100 100 100 100 100 100 97 84 98 100 100 100 100 100 100 100 100 100 97 100 100 100
83 81 74 66 63 60 58 59 59 61 28 16 16 18 20 19 26 29 55 76 74 88 100 100 100 100 100 98 100 100 100 100 100 100 100 100 99 100 100 99 100 100 100 100 100 100 100 100 100 90 97 95 80 65
80 68 64 60 56 59 60 54 47 40 24 15 14 16 19 23 24 30 28 42 33 54 86 82 100 100 100 100 100 100 100 100 100 100 100 100 87 78 69 81 89 100 100 100 100 100 100 100 100 100 98 100 100 100
67 60 55 51 52 48 42 32 28 26 20 14 11 12 16 21 21 25 32 46 50 57 58 63 100 100 83 100 100 100 100 100 100 100 100 100 100 100 100 96 100 100 100 100 90 72 78 93 100 100 100 94 93 100
51 45 41 36 32 27 23 21 20 20 18 13 10 11 15 17 18 20 22 27 40 58 58 63 76 100 92 96 100 100 100 100 100 90 100 100 100 100 100 100 100 100 87 84 71 75 96 100 93 80 100 90 64 53
37 33 24 20 20 21 20 20 21 20 16 11 9 10 13 16 18 19 20 23 53 67 94 82 72 88 98 96 100 100 100 100 100 100 100 100 100 100 100 100 76 75 100 100 100 100 100 100 84 73 73 83 94 100
24 21 20 23 25 26 26 26 24 19 18 15 10 12 11 15 16 16 17 21 36 59 77 81 75 88 98 80 91 98 100 100 100 100 100 100 100 100 100 100 100 99 91 98 95 92 100 100 100 100 100 100 100 96
26 30 30 27 26 25 26 24 20 20 16 13 12 15 15 17 19 22 28 41 48 47 65 88 73 90 98 97 99 100 100 100 100 100 96 100 100 100 100 95 98 76 73 86 86 94 100 100 96 100 95 83 82 85
29 25 23 20 20 21 25 19 16 20 24 16 13 16 17 20 25 30 38 62 53 62 93 75 73 81 98 100 100 99 100 100 100 100 91 80 82 77 73 72 68 68 75 85 100 100 96 100 100 99 78 63 48 47
24 19 16 14 16 17 21 21 10 14 20 17 13 16 18 23 28 36 54 58 65 40 48 91 98 96 100 92 75 76 76 71 70 75 75 73 81 86 86 76 69 94 100 100 82 80 69 78 82 77 66 49 40 42
26 18 17 18 16 18 22 19 13 11 12 14 14 16 18 27 29 40 48 54 52 44 31 43 70 89 94 99 89 77 67 64 69 78 85 79 85 93 86 95 100 100 97 77 62 56 54 52 50 48 48 49 43 34
14 16 17 19 19 20 23 17 12 12 12 14 16 20 23 27 34 51 58 68 64 64 64 74 87 82 87 84 77 54 47 49 51 54 62 64 62 62 68 71 64 57 47 46 49 50 52 58 57 54 47 35 26 22
18 18 15 16 18 19 19 14 11 13 12 12 15 18 25 31 40 82 85 79 71 81 79 62 57 69 79 78 65 60 69 72 76 84 88 84 90 79 65 50 44 47 50 54 61 63 58 51 51 43 35 27 22 28
18 15 15 14 16 15 16 14 13 13 11 10 13 18 24 28 34 57 70 73 68 64 61 53 50 52 54 61 70 82 95 96 93 85 79 70 67 62 55 51 53 62 68 64 57 54 56 54 46 36 24 23 30 24
11 11 13 14 15 16 15 12 13 14 16 16 17 20 26 30 37 63 79 75 59 43 47 58 67 71 75 79 85 90 95 94 87 79 68 61 56 50 50 60 62 59 57 56 60 59 53 44 36 26 23 24 22 25
13 12 11 11 13 15 15 15 16 17 19 23 26 26 30 39 50 73 89 91 86 73 79 79 75 72 79 96 97 89 77 65 59 60 63 61 62 64 63 61 64 64 65 65 57 52 44 34 28 23 23 26 33 37
18 20 20 17 16 17 16 19 20 24 27 32 34 39 43 52 63 94 85 83 87 90 88 78 78 77 73 80 84 82 81 81 82 80 74 69 66 67 68 65 63 60 56 54 44 34 32 30 27 26 28 38 39 36

GFSWCAN_250_rhum_291.txt.gz
RH
22 21 22 23 22 23 23 24 24 23 23 22 22 22 21 22 21 18 18 16 15 15 17 18 18 21 26 25 28 35 32 34 38 34 33 31 24 28 21 22 21 25 29 23 21 16 10 23 24 18 23 27 30 57
19 19 20 20 21 22 21 21 22 22 22 22 21 21 21 20 20 18 17 18 15 13 14 14 16 18 22 22 20 22 23 25 27 28 28 25 16 14 14 15 19 17 25 23 17 12 14 15 18 21 18 16 17 15
13 14 15 18 18 20 20 19 19 20 21 21 21 21 21 20 19 19 19 18 14 13 13 15 20 20 16 18 17 16 18 19 20 22 18 16 15 18 15 13 21 20 23 17 16 15 16 11 12 9 11 10 11 13
10 9 12 14 14 15 16 16 16 18 18 19 20 20 21 20 19 20 20 18 15 13 12 21 20 20 18 16 14 12 14 13 14 15 12 13 14 16 15 12 12 15 15 12 10 12 12 14 16 13 16 23 28 76
8 9 10 10 10 12 14 15 17 18 19 19 19 18 17 18 18 16 16 16 15 12 12 22 20 24 18 14 13 12 11 14 14 14 13 12 12 11 10 8 8 10 9 8 11 13 12 12 14 15 41 81 100 100
9 9 8 10 10 10 11 14 14 15 16 18 18 17 17 16 13 14 16 15 12 8 9 17 18 15 10 10 10 11 11 14 13 11 10 8 10 8 8 8 10 9 9 10 14 15 29 35 56 100 100 100 100 100
8 8 9 10 10 11 12 12 14 16 17 18 16 15 13 12 12 14 14 13 10 7 9 11 14 13 9 10 11 12 12 11 9 8 8 9 9 7 8 9 11 10 12 13 23 49 91 95 100 100 100 100 100 100
8 9 9 11 12 12 14 16 16 18 17 15 13 12 12 12 13 15 12 10 8 8 10 13 14 10 11 13 12 11 10 9 8 8 8 9 8 7 10 13 12 14 19 38 40 100 100 100 100 98 100 98 100 100
9 10 11 12 12 14 16 15 15 14 13 13 13 12 12 13 12 10 9 9 10 12 13 15 11 12 14 13 13 12 11 9 8 10 10 8 7 12 17 16 17 27 66 68 77 100 100 100 100 100 100 100 100 100
10 11 12 12 14 15 14 14 15 15 14 14 14 14 14 12 11 11 10 11 12 12 15 12 12 14 13 14 15 15 14 13 12 13 11 9 21 21 23 34 52 73 100 92 100 100 100 100 100 100 100 89 100 100
10 11 11 12 12 13 15 15 15 15 15 14 14 13 12 12 12 12 14 14 13 15 13 14 16 15 15 16 19 21 19 16 15 15 12 14 37 41 36 63 66 92 70 99 100 100 100 100 100 100 97 100 100 100
10 11 12 13 13 14 14 15 15 14 13 14 15 14 14 15 16 16 14 14 16 14 14 15 15 17 20 24 30 26 23 18 21 18 14 20 30 45 78 96 100 100 100 100 100 100 100 99 95 100 100 100 100 100
11 12 12 13 14 15 15 16 15 17 17 16 17 17 15 15 16 15 15 18 19 15 16 18 26 27 38 52 50 40 38 23 35 21 23 20 26 69 100 100 96 99 100 100 100 100 100 99 100 100 100 100 100 100
12 13 14 15 17 18 19 19 20 20 19 18 18 20 19 18 16 15 16 16 14 21 24 37 57 58 64 73 84 52 48 48 65 51 54 49 63 100 100 100 100 100 100 100 100 100 100 100 100 100 99 100 100 100
14 16 18 19 21 22 23 24 27 27 27 24 21 17 14 13 13 15 18 20 23 32 36 47 57 91 74 76 73 91 99 100 100 96 70 100 100 100 100 100 100 100 100 100 100 100 100 100 100 100 100 100 100 100
20 21 23 25 33 42 43 41 36 29 21 16 15 14 15 14 16 15 17 24 35 52 59 68 99 100 94 96 96 100 100 100 100 94 80 100 100 100 100 100 100 100 100 100 100 100 100 93 100 100 100 100 100 96
30 40 44 53 58 61 61 62 49 29 19 17 17 18 20 20 22 20 21 29 51 53 70 92 90 81 97 95 100 100 100 100 100 100 79 95 100 100 100 100 100 100 100 100 100 100 100 100 100 100 100 100 100 100
62 65 71 72 70 73 78 76 60 38 33 22 20 21 24 25 27 31 25 29 49 65 91 96 96 77 80 98 100 100 100 100 100 100 94 70 95 100 100 100 100 100 100 100 100 100 100 100 100 100 100 100 100 100
80 77 76 75 76 79 86 84 69 43 35 28 23 24 26 24 22 28 27 28 50 71 65 69 82 77 91 100 100 100 100 100 100 100 100 72 80 100 100 100 100 100 100 100 100 100 100 100 100 100 100 100 100 100
82 82 82 83 85 82 78 75 59 41 36 31 22 23 23 22 23 27 31 30 53 74 69 79 83 92 86 96 100 100 100 100 100 100 100 100 100 71 76 86 98 94 89 97 100 100 100 74 62 84 89 100 98 99
86 87 87 83 76 72 64 53 43 36 36 38 22 23 21 23 24 28 32 33 52 64 84 100 94 94 91 100 100 100 100 100 100 100 100 100 100 98 83 93 80 78 96 87 65 65 86 100 100 100 100 93 85 100
83 77 72 67 55 48 40 34 32 29 31 32 25 20 23 23 22 27 34 47 59 76 99 100 98 86 100 97 91 93 100 100 100 100 100 100 100 100 99 81 72 75 80 84 96 93 78 81 89 91 84 72 85 92
63 57 44 34 30 25 22 21 22 23 23 26 22 17 21 23 22 23 50 59 60 79 92 100 98 90 97 100 97 87 94 100 100 100 100 100 100 100 100 100 100 79 73 60 59 65 96 90 76 78 78 71 66 62
29 22 21 21 22 25 25 26 24 23 26 26 22 17 22 27 27 36 65 77 82 98 98 100 100 100 93 100 100 98 84 93 100 100 100 100 100 100 100 81 100 100 87 63 77 78 63 53 50 47 49 51 50 55
20 22 25 27 27 27 28 27 23 20 24 25 18 19 25 30 33 52 95 100 100 100 100 100 100 100 88 91 96 76 87 90 93 100 100 100 100 100 100 100 100 78 84 83 75 66 59 60 63 68 86 82 95 91
31 31 30 25 24 25 30 30 25 21 18 14 14 18 25 29 31 42 74 90 100 100 100 100 100 100 100 99 100 99 70 82 98 99 100 100 100 100 100 95 96 88 72 70 64 67 84 99 96 100 98 97 91 86
41 33 25 22 22 24 29 36 23 17 14 13 16 18 21 22 22 30 36 39 61 88 94 100 100 99 100 100 98 99 100 100 99 100 100 100 100 100 98 85 84 85 88 94 94 86 77 77 89 87 83 80 77 72
42 32 23 22 21 25 38 31 23 16 14 15 19 22 21 21 28 31 38 56 74 79 83 90 100 100 100 100 100 100 99 100 98 100 99 98 100 100 99 94 86 79 78 72 71 75 87 97 84 54 55 57 48 55
34 25 19 19 21 28 31 27 16 13 15 17 19 23 24 27 33 61 75 81 85 73 65 93 97 93 87 81 96 99 100 85 70 80 89 83 81 92 95 93 90 93 98 92 92 90 85 70 57 53 52 54 53 47
19 15 15 17 18 21 26 22 16 13 12 15 16 21 26 33 42 61 64 61 59 65 72 67 77 95 97 96 99 97 96 96 96 85 85 70 74 84 82 84 82 74 67 62 58 52 50 52 54 50 40 36 33 36
11 12 15 16 16 20 29 23 17 16 14 17 15 20 28 33 58 66 69 66 70 85 90 84 73 71 79 89 99 99 96 89 87 83 81 80 94 96 92 76 65 56 49 44 39 39 40 43 44 41 39 40 38 32
13 16 16 16 19 20 19 18 17 17 18 18 16 21 31 39 52 64 68 66 80 69 50 59 72 74 77 87 81 77 82 84 95 99 97 94 88 76 64 57 46 42 42 39 38 39 40 41 43 44 41 36 32 30
18 18 16 18 19 20 16 16 17 17 19 19 20 25 32 38 45 52 53 57 62 73 88 83 70 86 89 91 95 94 97 95 96 93 91 84 76 68 60 56 52 48 47 46 45 46 47 48 44 35 32 30 30 30

GFSWCAN_250_rhum_297.txt.gz
RH
21 21 21 24 25 25 25 22 21 20 20 21 22 22 23 23 21 20 22 20 18 18 20 19 20 23 29 33 43 43 40 42 41 34 31 37 34 32 24 27 39 42 38 23 26 29 15 26 24 30 23 28 30 40
14 17 20 22 23 25 23 23 26 25 22 21 22 22 22 22 21 20 21 23 22 18 22 20 19 19 20 20 24 30 31 33 34 31 28 26 25 27 29 27 38 30 33 30 30 26 23 25 32 32 28 29 36 42
9 16 18 19 17 16 15 20 22 22 22 22 23 23 23 23 22 22 25 24 22 20 22 21 23 22 17 18 17 17 17 20 18 20 23 23 20 25 23 22 32 32 35 30 29 22 24 24 24 26 34 34 37 29
11 16 17 12 8 7 10 16 20 19 18 19 21 22 22 23 22 24 26 26 21 22 20 27 27 24 21 21 19 16 18 16 16 16 16 16 16 19 21 22 25 30 36 29 26 20 26 20 19 24 28 27 20 22
11 9 6 6 6 6 8 13 18 19 19 19 18 20 21 21 22 25 26 25 23 22 22 29 30 28 24 21 19 19 21 20 17 14 14 15 16 18 17 17 14 32 22 23 17 15 18 19 17 14 15 17 20 18
6 6 6 5 6 7 8 10 12 14 16 17 16 17 20 22 23 23 23 23 25 24 21 27 29 29 28 24 23 20 18 16 14 15 15 14 18 17 13 13 18 22 26 19 11 15 15 12 14 13 12 14 17 18
6 5 5 5 6 6 8 9 10 10 11 12 13 15 18 19 21 20 22 26 24 19 21 28 31 33 29 25 19 13 13 13 14 15 14 13 14 13 10 15 39 13 9 6 6 8 9 13 12 9 8 15 15 19
3 4 4 4 4 6 7 9 9 8 7 9 13 14 16 19 20 21 21 23 21 23 23 25 30 35 17 12 12 14 16 18 15 16 18 15 17 14 13 10 12 12 8 7 8 8 10 8 10 11 11 16 18 14
4 4 3 4 4 5 6 7 7 9 10 11 10 10 15 17 21 23 23 20 21 23 20 24 32 23 13 11 12 14 17 17 17 15 15 12 15 13 11 10 10 12 10 9 9 9 10 11 11 12 12 12 22 22
4 4 4 4 4 5 6 6 7 8 9 8 9 11 15 18 22 20 18 18 24 20 21 28 16 19 11 11 14 16 17 14 14 13 14 12 12 11 9 9 9 9 9 9 10 9 8 9 9 10 12 14 14 52
4 4 4 4 5 6 7 7 8 8 9 10 11 13 16 18 18 18 19 20 21 22 28 16 14 16 12 11 15 17 13 12 12 12 11 12 10 10 9 8 8 8 8 8 8 8 9 9 10 13 41 53 87 100
4 4 4 5 5 6 7 8 8 10 11 12 14 14 15 15 15 18 20 22 25 21 13 11 16 12 13 14 14 13 12 11 12 14 13 11 11 10 10 9 8 8 8 9 9 9 10 12 17 82 100 100 100 100
4 5 5 5 6 7 8 10 12 13 13 14 15 15 14 14 15 21 24 17 12 11 12 14 14 16 15 13 13 14 13 16 16 14 12 12 11 12 11 11 11 10 11 10 11 14 16 53 100 100 100 100 100 100
5 6 6 7 9 10 11 12 13 14 14 14 14 15 15 18 19 13 10 12 15 14 15 18 21 18 16 15 14 14 18 18 17 14 14 15 21 20 18 18 17 18 21 24 23 32 88 100 100 100 100 100 100 100
6 7 8 9 10 11 12 13 14 14 15 16 16 18 17 14 12 13 14 16 18 18 20 20 20 18 16 16 15 18 18 20 19 24 38 57 51 78 74 48 59 56 72 84 95 100 100 100 100 100 100 100 100 100
8 8 9 10 11 13 14 14 14 14 16 17 18 16 14 13 14 15 16 17 17 18 17 18 18 17 16 16 17 19 21 24 28 68 87 66 94 100 100 91 96 100 100 100 100 100 100 100 100 100 100 100 100 100
10 12 14 15 16 16 16 16 17 18 18 16 15 13 14 15 16 16 15 16 16 16 17 17 16 18 20 21 28 38 50 45 58 99 100 96 100 100 100 100 100 100 100 100 100 100 100 100 100 100 100 100 100 100
15 15 16 16 17 18 18 18 17 17 15 14 14 15 17 19 20 16 17 18 19 20 20 21 22 28 28 29 56 70 81 74 99 100 100 100 100 100 100 100 100 100 100 100 100 100 100 100 100 100 100 100 100 100
16 15 16 16 17 16 15 16 16 16 17 19 21 20 19 18 17 18 19 19 22 22 23 27 34 45 44 54 67 90 94 100 100 100 100 100 100 100 100 100 100 100 100 100 100 100 100 100 100 100 100 100 100 100
18 18 18 19 19 21 24 25 24 24 22 22 20 19 18 18 19 21 24 23 20 27 38 58 75 72 83 96 80 99 100 100 100 100 100 100 100 100 100 100 100 100 100 100 100 100 100 100 100 100 100 100 100 100
21 24 27 31 32 35 35 37 36 34 29 25 22 20 18 19 20 18 21 24 31 47 64 73 74 83 100 100 97 100 100 100 100 100 100 100 100 100 100 100 100 100 100 100 100 100 100 100 100 100 100 100 100 100
44 44 53 58 52 52 50 46 44 41 35 25 19 17 16 18 18 30 29 52 60 65 82 85 93 92 100 100 100 100 100 100 100 100 100 100 100 100 100 100 100 100 100 100 100 100 100 100 92 92 100 100 100 100
61 65 68 66 62 63 64 58 53 51 44 36 24 21 21 27 22 34 65 71 85 100 98 100 97 99 100 100 100 97 91 100 100 100 100 100 100 100 100 100 100 100 100 100 100 100 100 100 100 100 100 100 100 100
84 83 78 71 68 62 59 60 63 62 58 50 37 28 25 30 47 52 63 64 84 100 100 100 100 100 100 100 100 100 91 97 100 100 100 100 100 100 100 100 100 100 100 100 100 100 100 100 100 100 100 100 100 100
83 82 81 81 78 65 57 53 49 46 45 49 43 30 26 37 47 44 72 71 82 100 100 100 100 100 100 100 100 100 100 100 100 96 100 100 100 100 100 100 100 100 100 100 100 100 88 81 100 100 93 88 83 80
71 66 61 52 43 38 36 35 34 35 36 38 42 36 26 32 37 58 61 76 91 96 100 100 100 100 100 100 100 100 100 100 100 96 94 88 86 100 100 100 100 99 100 100 100 100 100 85 69 74 74 74 73 68
43 35 29 24 22 22 22 22 22 22 23 29 35 37 26 28 33 44 71 89 94 98 95 98 100 100 100 100 100 100 100 100 98 100 100 100 93 70 75 86 84 98 100 91 68 59 65 69 64 60 57 60 68 65
30 26 26 26 27 28 28 27 26 23 22 24 28 33 26 24 30 53 83 84 88 94 98 100 100 100 100 100 100 100 100 100 100 100 87 82 90 94 99 100 93 86 89 96 97 80 78 91 94 94 94 85 82 74
39 38 36 30 29 31 34 31 28 24 24 26 29 33 25 25 33 47 88 90 91 96 100 100 98 100 96 100 100 100 100 100 100 100 100 100 100 100 99 100 100 100 100 100 100 100 98 99 99 94 80 72 66 58
41 38 35 29 30 31 35 30 28 26 28 31 32 28 30 29 54 90 95 94 93 89 95 96 96 100 100 100 100 100 100 100 100 100 100 100 100 100 100 96 88 90 95 96 92 86 81 73 65 61 58 50 46 44
32 32 29 25 29 37 34 24 26 29 30 29 30 29 35 43 100 100 100 100 100 94 92 92 97 98 98 97 99 99 100 100 100 100 99 96 98 99 100 96 83 74 78 71 72 77 65 64 65 54 52 57 54 51
34 32 29 23 25 33 28 23 24 30 31 26 26 28 34 68 75 68 100 100 100 99 98 100 98 99 97 99 100 100 100 96 89 84 80 83 85 76 73 72 70 74 84 93 95 92 74 59 66 70 63 54 49 46
31 32 30 26 25 29 27 29 26 31 30 24 27 32 35 38 47 94 100 100 100 100 100 100 100 100 100 92 90 89 80 82 85 86 86 92 87 88 94 94 90 91 89 75 66 72 68 66 59 53 50 48 43 40